Time,TemperatureF,DewpointF,PressureIn,WindDirection,WindDirectionDegrees,WindSpeedMPH,WindSpeedGustMPH,Humidity,HourlyPrecipIn,Conditions,Clouds,dailyrainin,SoftwareType,DateUTC
2013-03-05 00:00:00,30.9,17.1,29.29,NNE,22,3.1,3.4,56,0.00,,---,0.00,VWS V14.01,2013-03-05 05:00:00,
2013-03-05 00:01:00,30.9,17.1,29.29,NW,315,5.8,5.8,56,0.00,,---,0.00,VWS V14.01,2013-03-05 05:01:00,
2013-03-05 00:02:00,30.9,17.1,29.29,SSW,202,4.0,5.8,56,0.00,,---,0.00,VWS V14.01,2013-03-05 05:02:00,
2013-03-05 00:05:00,30.9,17.1,29.29,NNE,22,3.8,3.8,56,0.00,,---,0.00,VWS V14.01,2013-03-05 05:05:00,
2013-03-05 00:11:00,30.7,16.9,29.29,SSW,202,1.6,4.7,56,0.00,,---,0.00,VWS V14.01,2013-03-05 05:11:00,
2013-03-05 00:16:00,30.7,16.9,29.29,ENE,68,2.5,5.4,56,0.00,,---,0.00,VWS V14.01,2013-03-05 05:16:00,
2013-03-05 00:21:00,30.7,17.3,29.29,SW,225,3.1,4.3,57,0.00,,---,0.00,VWS V14.01,2013-03-05 05:21:00,
2013-03-05 00:26:00,30.9,17.5,29.29,NNW,338,3.6,4.3,57,0.00,,---,0.00,VWS V14.01,2013-03-05 05:26:00,
2013-03-05 00:31:00,31.1,17.7,29.29,North,0,1.6,10.3,57,0.00,,---,0.00,VWS V14.01,2013-03-05 05:31:00,
2013-03-05 00:36:00,31.1,17.7,29.29,WNW,292,3.8,5.8,57,0.00,,---,0.00,VWS V14.01,2013-03-05 05:36:00,
2013-03-05 00:41:00,31.3,17.8,29.29,WNW,292,2.7,3.8,57,0.00,,---,0.00,VWS V14.01,2013-03-05 05:41:00,
2013-03-05 00:47:00,31.5,18.0,29.32,SSE,158,2.9,6.0,57,0.00,,---,0.00,VWS V14.01,2013-03-05 05:47:00,
2013-03-05 00:52:00,31.6,18.2,29.32,NNE,22,3.6,5.8,57,0.00,,---,0.00,VWS V14.01,2013-03-05 05:52:00,
2013-03-05 00:58:00,31.6,18.2,29.32,North,0,3.1,7.4,57,0.00,,---,0.00,VWS V14.01,2013-03-05 05:58:00,
2013-03-05 01:03:00,31.6,18.2,29.32,WSW,248,2.9,10.5,57,0.00,,---,0.00,VWS V14.01,2013-03-05 06:03:00,
2013-03-05 01:08:00,32.0,18.5,29.32,WSW,248,3.6,12.5,57,0.00,,---,0.00,VWS V14.01,2013-03-05 06:08:00,
2013-03-05 01:13:00,32.0,18.1,29.32,NNE,22,5.8,5.8,56,0.00,,---,0.00,VWS V14.01,2013-03-05 06:13:00,
2013-03-05 01:18:00,32.0,18.1,29.32,ENE,68,4.7,5.6,56,0.00,,---,0.00,VWS V14.01,2013-03-05 06:18:00,
2013-03-05 01:23:00,32.0,18.1,29.32,SSW,202,2.0,11.0,56,0.00,,---,0.00,VWS V14.01,2013-03-05 06:23:00,
2013-03-05 01:28:00,32.0,18.1,29.32,SSW,202,3.4,9.8,56,0.00,,---,0.00,VWS V14.01,2013-03-05 06:28:00,
2013-03-05 01:33:00,31.8,17.9,29.32,NW,315,2.5,10.1,56,0.00,,---,0.00,VWS V14.01,2013-03-05 06:33:00,
2013-03-05 01:38:00,31.8,17.9,29.32,SW,225,1.6,5.4,56,0.00,,---,0.00,VWS V14.01,2013-03-05 06:38:00,
2013-03-05 01:43:00,31.8,17.9,29.32,NNW,338,2.5,2.7,56,0.00,,---,0.00,VWS V14.01,2013-03-05 06:43:00,
2013-03-05 01:48:00,31.6,17.8,29.32,WNW,292,4.3,6.0,56,0.00,,---,0.00,VWS V14.01,2013-03-05 06:48:00,
2013-03-05 01:53:00,31.6,17.8,29.32,WSW,248,2.9,4.0,56,0.00,,---,0.00,VWS V14.01,2013-03-05 06:53:00,
2013-03-05 01:58:00,31.5,17.6,29.32,SSE,158,5.4,5.4,56,0.00,,---,0.00,VWS V14.01,2013-03-05 06:58:00,
2013-03-05 02:03:00,31.6,18.2,29.32,NNW,338,4.3,4.3,57,0.00,,---,0.00,VWS V14.01,2013-03-05 07:03:00,
2013-03-05 02:08:00,31.6,18.2,29.32,WSW,248,5.6,5.6,57,0.00,,---,0.00,VWS V14.01,2013-03-05 07:08:00,
2013-03-05 02:13:00,31.5,18.0,29.32,South,180,2.0,5.4,57,0.00,,---,0.00,VWS V14.01,2013-03-05 07:13:00,
2013-03-05 02:18:00,31.5,18.0,29.32,SE,135,2.7,4.7,57,0.00,,---,0.00,VWS V14.01,2013-03-05 07:18:00,
2013-03-05 02:23:00,31.5,18.0,29.32,NNE,22,3.4,3.6,57,0.00,,---,0.00,VWS V14.01,2013-03-05 07:23:00,
2013-03-05 02:28:00,31.8,18.3,29.32,NNE,22,3.6,5.8,57,0.00,,---,0.00,VWS V14.01,2013-03-05 07:28:00,
2013-03-05 02:33:00,31.8,18.3,29.32,WNW,292,3.8,4.3,57,0.00,,---,0.00,VWS V14.01,2013-03-05 07:33:00,
2013-03-05 02:38:00,32.0,18.5,29.32,ESE,112,4.3,5.4,57,0.00,,---,0.00,VWS V14.01,2013-03-05 07:38:00,
2013-03-05 02:44:00,32.0,18.5,29.32,East,90,4.0,5.4,57,0.00,,---,0.00,VWS V14.01,2013-03-05 07:44:00,
2013-03-05 02:50:00,32.0,18.1,29.32,NE,45,3.8,3.8,56,0.00,,---,0.00,VWS V14.01,2013-03-05 07:50:00,
2013-03-05 02:55:00,32.0,18.5,29.32,SW,225,1.6,5.4,57,0.00,,---,0.00,VWS V14.01,2013-03-05 07:55:00,
2013-03-05 03:00:00,32.0,18.1,29.32,West,270,3.8,9.0,56,0.00,,---,0.00,VWS V14.01,2013-03-05 08:00:00,
2013-03-05 03:05:00,32.0,18.1,29.32,ENE,68,3.1,7.2,56,0.00,,---,0.00,VWS V14.01,2013-03-05 08:05:00,
2013-03-05 03:10:00,31.8,17.9,29.32,NNW,338,4.3,6.3,56,0.00,,---,0.00,VWS V14.01,2013-03-05 08:10:00,
2013-03-05 03:16:00,31.8,17.9,29.35,NNW,338,5.8,5.8,56,0.00,,---,0.00,VWS V14.01,2013-03-05 08:16:00,
2013-03-05 03:21:00,31.8,17.9,29.35,SSE,158,3.1,3.1,56,0.00,,---,0.00,VWS V14.01,2013-03-05 08:21:00,
2013-03-05 03:26:00,32.0,18.1,29.35,WNW,292,1.6,4.9,56,0.00,,---,0.00,VWS V14.01,2013-03-05 08:26:00,
2013-03-05 03:31:00,32.2,18.3,29.35,SSW,202,3.1,3.1,56,0.00,,---,0.00,VWS V14.01,2013-03-05 08:31:00,
2013-03-05 03:37:00,32.0,18.1,29.35,South,180,1.6,6.3,56,0.00,,---,0.00,VWS V14.01,2013-03-05 08:37:00,
2013-03-05 03:42:00,32.0,18.1,29.35,SSE,158,2.7,3.8,56,0.00,,---,0.00,VWS V14.01,2013-03-05 08:42:00,
2013-03-05 03:47:00,32.0,18.5,29.35,SSW,202,2.9,4.0,57,0.00,,---,0.00,VWS V14.01,2013-03-05 08:47:00,
2013-03-05 03:52:00,32.0,18.1,29.35,NNW,338,4.3,4.3,56,0.00,,---,0.00,VWS V14.01,2013-03-05 08:52:00,
2013-03-05 03:57:00,32.0,18.5,29.35,ENE,68,1.6,3.1,57,0.00,,---,0.00,VWS V14.01,2013-03-05 08:57:00,
2013-03-05 04:02:00,32.2,18.3,29.35,ENE,68,5.8,5.8,56,0.00,,---,0.00,VWS V14.01,2013-03-05 09:02:00,
2013-03-05 04:07:00,32.2,18.3,29.35,WSW,248,2.5,4.7,56,0.00,,---,0.00,VWS V14.01,2013-03-05 09:07:00,
2013-03-05 04:12:00,32.0,18.1,29.35,South,180,2.7,5.6,56,0.00,,---,0.00,VWS V14.01,2013-03-05 09:12:00,
2013-03-05 04:17:00,32.0,18.5,29.35,SE,135,3.6,4.3,57,0.00,,---,0.00,VWS V14.01,2013-03-05 09:17:00,
2013-03-05 04:22:00,32.0,18.5,29.35,ENE,68,3.4,5.4,57,0.00,,---,0.00,VWS V14.01,2013-03-05 09:22:00,
2013-03-05 04:28:00,32.0,18.5,29.38,SE,135,2.0,2.0,57,0.00,,---,0.00,VWS V14.01,2013-03-05 09:28:00,
2013-03-05 04:34:00,32.0,18.5,29.38,ENE,68,5.8,5.8,57,0.00,,---,0.00,VWS V14.01,2013-03-05 09:34:00,
2013-03-05 04:39:00,32.0,18.5,29.38,East,90,3.4,4.9,57,0.00,,---,0.00,VWS V14.01,2013-03-05 09:39:00,
2013-03-05 04:44:00,32.0,18.5,29.38,ENE,68,3.8,3.8,57,0.00,,---,0.00,VWS V14.01,2013-03-05 09:44:00,
2013-03-05 04:49:00,31.8,18.3,29.38,ESE,112,2.9,4.0,57,0.00,,---,0.00,VWS V14.01,2013-03-05 09:49:00,
2013-03-05 04:54:00,31.8,18.3,29.38,ESE,112,1.1,4.7,57,0.00,,---,0.00,VWS V14.01,2013-03-05 09:54:00,
2013-03-05 04:59:00,32.0,18.5,29.38,WSW,248,3.6,4.5,57,0.00,,---,0.00,VWS V14.01,2013-03-05 09:59:00,
2013-03-05 05:05:00,32.2,19.1,29.38,SSE,158,3.4,4.3,58,0.00,,---,0.00,VWS V14.01,2013-03-05 10:05:00,
2013-03-05 05:10:00,32.2,19.1,29.38,ENE,68,4.7,6.3,58,0.00,,---,0.00,VWS V14.01,2013-03-05 10:10:00,
2013-03-05 05:15:00,32.0,19.3,29.38,SSE,158,4.0,4.0,59,0.00,,---,0.00,VWS V14.01,2013-03-05 10:15:00,
2013-03-05 05:20:00,32.0,19.7,29.38,SSW,202,2.9,4.3,60,0.00,,---,0.00,VWS V14.01,2013-03-05 10:20:00,
2013-03-05 05:25:00,32.0,20.1,29.38,WNW,292,2.5,3.8,61,0.00,,---,0.00,VWS V14.01,2013-03-05 10:25:00,
2013-03-05 05:31:00,31.8,19.9,29.41,SSW,202,2.2,3.1,61,0.00,,---,0.00,VWS V14.01,2013-03-05 10:31:00,
2013-03-05 05:36:00,32.0,19.7,29.41,SW,225,2.9,3.8,60,0.00,,---,0.00,VWS V14.01,2013-03-05 10:36:00,
2013-03-05 05:41:00,32.2,19.9,29.41,SE,135,2.5,2.5,60,0.00,,---,0.00,VWS V14.01,2013-03-05 10:41:00,
2013-03-05 05:47:00,32.2,19.9,29.41,ESE,112,2.5,2.5,60,0.00,,---,0.00,VWS V14.01,2013-03-05 10:47:00,
2013-03-05 05:52:00,32.2,19.9,29.41,ENE,68,4.3,4.3,60,0.00,,---,0.00,VWS V14.01,2013-03-05 10:52:00,
2013-03-05 05:57:00,32.2,19.9,29.41,ENE,68,2.9,4.9,60,0.00,,---,0.00,VWS V14.01,2013-03-05 10:57:00,
2013-03-05 06:02:00,32.2,19.9,29.41,SE,135,4.0,4.0,60,0.00,,---,0.00,VWS V14.01,2013-03-05 11:02:00,
2013-03-05 06:07:00,32.2,19.9,29.41,SE,135,2.7,3.1,60,0.00,,---,0.00,VWS V14.01,2013-03-05 11:07:00,
2013-03-05 06:12:00,32.2,19.9,29.41,ENE,68,2.2,7.8,60,0.00,,---,0.00,VWS V14.01,2013-03-05 11:12:00,
2013-03-05 06:17:00,32.5,19.4,29.41,ESE,112,3.4,5.4,58,0.00,,---,0.00,VWS V14.01,2013-03-05 11:17:00,
2013-03-05 06:23:00,32.5,19.4,29.41,ESE,112,0.9,2.7,58,0.00,,---,0.00,VWS V14.01,2013-03-05 11:23:00,
2013-03-05 06:28:00,32.7,19.6,29.44,NNE,22,4.3,4.3,58,0.00,,---,0.00,VWS V14.01,2013-03-05 11:28:00,
2013-03-05 06:34:00,32.7,19.6,29.44,South,180,1.6,2.9,58,0.00,,---,0.00,VWS V14.01,2013-03-05 11:34:00,
2013-03-05 06:39:00,33.1,19.9,29.44,NNW,338,2.5,6.5,58,0.00,,---,0.00,VWS V14.01,2013-03-05 11:39:00,
2013-03-05 06:44:00,33.1,19.9,29.44,SSE,158,4.5,4.5,58,0.00,,---,0.00,VWS V14.01,2013-03-05 11:44:00,
2013-03-05 06:50:00,33.3,19.7,29.44,ESE,112,2.7,3.1,57,0.00,,---,0.00,VWS V14.01,2013-03-05 11:50:00,
2013-03-05 06:56:00,33.3,19.7,29.44,WSW,248,2.9,3.1,57,0.00,,---,0.00,VWS V14.01,2013-03-05 11:56:00,
2013-03-05 07:01:00,33.4,19.9,29.44,ESE,112,0.0,2.7,57,0.00,,---,0.00,VWS V14.01,2013-03-05 12:01:00,
2013-03-05 07:06:00,33.4,19.9,29.44,ENE,68,2.5,2.5,57,0.00,,---,0.00,VWS V14.01,2013-03-05 12:06:00,
2013-03-05 07:11:00,33.6,20.0,29.44,East,90,2.7,2.9,57,0.00,,---,0.00,VWS V14.01,2013-03-05 12:11:00,
2013-03-05 07:16:00,33.6,20.0,29.44,SW,225,2.5,3.8,57,0.00,,---,0.00,VWS V14.01,2013-03-05 12:16:00,
2013-03-05 07:21:00,33.8,20.2,29.44,East,90,0.9,2.0,57,0.00,,---,0.00,VWS V14.01,2013-03-05 12:21:00,
2013-03-05 07:26:00,33.8,19.8,29.44,SSE,158,2.0,3.1,56,0.00,,---,0.00,VWS V14.01,2013-03-05 12:26:00,
2013-03-05 07:31:00,34.0,20.0,29.47,ENE,68,2.7,3.4,56,0.00,,---,0.00,VWS V14.01,2013-03-05 12:31:00,
2013-03-05 07:36:00,34.2,20.5,29.47,ENE,68,1.1,2.7,57,0.00,,---,0.00,VWS V14.01,2013-03-05 12:36:00,
2013-03-05 07:41:00,34.7,21.0,29.47,NNW,338,2.2,2.7,57,0.00,,---,0.00,VWS V14.01,2013-03-05 12:41:00,
2013-03-05 07:46:00,35.1,21.0,29.47,East,90,2.5,3.1,56,0.00,,---,0.00,VWS V14.01,2013-03-05 12:46:00,
2013-03-05 07:52:00,35.4,21.3,29.47,SW,225,2.7,2.7,56,0.00,,---,0.00,VWS V14.01,2013-03-05 12:52:00,
2013-03-05 07:57:00,35.4,21.3,29.47,WNW,292,4.3,4.3,56,0.00,,---,0.00,VWS V14.01,2013-03-05 12:57:00,
2013-03-05 08:02:00,35.4,20.9,29.47,SSE,158,1.1,2.7,55,0.00,,---,0.00,VWS V14.01,2013-03-05 13:02:00,
2013-03-05 08:07:00,35.4,20.9,29.47,ENE,68,0.0,1.3,55,0.00,,---,0.00,VWS V14.01,2013-03-05 13:07:00,
2013-03-05 08:13:00,35.6,20.6,29.47,East,90,1.3,2.2,54,0.00,,---,0.00,VWS V14.01,2013-03-05 13:13:00,
2013-03-05 08:18:00,35.6,20.6,29.47,East,90,1.1,2.9,54,0.00,,---,0.00,VWS V14.01,2013-03-05 13:18:00,
2013-03-05 08:24:00,35.6,20.6,29.47,ESE,112,8.7,8.7,54,0.00,,---,0.00,VWS V14.01,2013-03-05 13:24:00,
2013-03-05 08:30:00,35.6,20.2,29.47,WNW,292,2.0,4.3,53,0.00,,---,0.00,VWS V14.01,2013-03-05 13:30:00,
2013-03-05 08:35:00,36.0,20.5,29.47,SSE,158,3.6,4.0,53,0.00,,---,0.00,VWS V14.01,2013-03-05 13:35:00,
2013-03-05 08:41:00,36.7,21.2,29.47,NE,45,4.9,5.8,53,0.00,,---,0.00,VWS V14.01,2013-03-05 13:41:00,
2013-03-05 08:46:00,37.0,21.1,29.47,WNW,292,7.6,7.6,52,0.00,,---,0.00,VWS V14.01,2013-03-05 13:46:00,
2013-03-05 08:52:00,36.9,20.4,29.47,SSW,202,5.4,5.4,51,0.00,,---,0.00,VWS V14.01,2013-03-05 13:52:00,
2013-03-05 08:57:00,37.0,20.6,29.47,NNW,338,2.5,5.4,51,0.00,,---,0.00,VWS V14.01,2013-03-05 13:57:00,
2013-03-05 09:02:00,37.4,20.9,29.47,NNE,22,2.7,3.8,51,0.00,,---,0.00,VWS V14.01,2013-03-05 14:02:00,
2013-03-05 09:07:00,37.4,20.9,29.47,NNE,22,7.2,7.2,51,0.00,,---,0.00,VWS V14.01,2013-03-05 14:07:00,
2013-03-05 09:12:00,37.6,21.1,29.47,SSE,158,3.1,3.1,51,0.00,,---,0.00,VWS V14.01,2013-03-05 14:12:00,
2013-03-05 09:17:00,38.1,21.6,29.47,East,90,2.2,3.4,51,0.00,,---,0.00,VWS V14.01,2013-03-05 14:17:00,
2013-03-05 09:24:00,38.3,21.3,29.47,SW,225,5.8,6.5,50,0.00,,---,0.00,VWS V14.01,2013-03-05 14:24:00,
2013-03-05 09:29:00,38.7,21.6,29.47,WNW,292,6.0,7.2,50,0.00,,---,0.00,VWS V14.01,2013-03-05 14:29:00,
2013-03-05 09:34:00,38.8,21.8,29.47,NE,45,1.6,3.4,50,0.00,,---,0.00,VWS V14.01,2013-03-05 14:34:00,
2013-03-05 09:39:00,39.2,21.7,29.47,ENE,68,2.5,5.4,49,0.00,,---,0.00,VWS V14.01,2013-03-05 14:39:00,
2013-03-05 09:44:00,39.6,22.0,29.47,WNW,292,2.0,3.8,49,0.00,,---,0.00,VWS V14.01,2013-03-05 14:44:00,
2013-03-05 09:50:00,39.9,22.3,29.47,NE,45,4.0,4.3,49,0.00,,---,0.00,VWS V14.01,2013-03-05 14:50:00,
2013-03-05 09:56:00,39.9,22.3,29.47,ENE,68,2.7,3.1,49,0.00,,---,0.00,VWS V14.01,2013-03-05 14:56:00,
2013-03-05 10:01:00,40.3,22.7,29.47,NNW,338,3.4,5.4,49,0.00,,---,0.00,VWS V14.01,2013-03-05 15:01:00,
2013-03-05 10:06:00,40.8,22.7,29.47,North,0,4.0,5.4,48,0.00,,---,0.00,VWS V14.01,2013-03-05 15:06:00,
2013-03-05 10:12:00,41.2,23.0,29.47,North,0,2.9,4.7,48,0.00,,---,0.00,VWS V14.01,2013-03-05 15:12:00,
2013-03-05 10:18:00,41.7,23.0,29.47,SSW,202,2.0,3.1,47,0.00,,---,0.00,VWS V14.01,2013-03-05 15:18:00,
2013-03-05 10:23:00,42.1,22.8,29.47,NNE,22,2.0,3.1,46,0.00,,---,0.00,VWS V14.01,2013-03-05 15:23:00,
2013-03-05 10:29:00,42.1,22.3,29.47,NW,315,5.8,7.2,45,0.00,,---,0.00,VWS V14.01,2013-03-05 15:29:00,
2013-03-05 10:34:00,41.9,21.6,29.47,WNW,292,4.7,6.3,44,0.00,,---,0.00,VWS V14.01,2013-03-05 15:34:00,
2013-03-05 10:40:00,42.3,22.5,29.47,ENE,68,3.8,3.8,45,0.00,,---,0.00,VWS V14.01,2013-03-05 15:40:00,
2013-03-05 10:45:00,42.4,22.6,29.47,SSE,158,4.0,4.0,45,0.00,,---,0.00,VWS V14.01,2013-03-05 15:45:00,
2013-03-05 10:51:00,42.4,22.1,29.47,West,270,2.9,2.9,44,0.00,,---,0.00,VWS V14.01,2013-03-05 15:51:00,
2013-03-05 10:57:00,42.4,22.1,29.47,WSW,248,2.2,3.1,44,0.00,,---,0.00,VWS V14.01,2013-03-05 15:57:00,
2013-03-05 11:02:00,41.9,21.6,29.47,ESE,112,2.9,8.7,44,0.00,,---,0.00,VWS V14.01,2013-03-05 16:02:00,
2013-03-05 11:07:00,41.5,21.3,29.47,South,180,4.0,4.0,44,0.00,,---,0.00,VWS V14.01,2013-03-05 16:07:00,
2013-03-05 11:12:00,41.7,21.4,29.47,WNW,292,2.7,4.0,44,0.00,,---,0.00,VWS V14.01,2013-03-05 16:12:00,
2013-03-05 11:17:00,41.9,21.6,29.47,ESE,112,2.7,3.4,44,0.00,,---,0.00,VWS V14.01,2013-03-05 16:17:00,
2013-03-05 11:23:00,41.7,21.4,29.47,SSW,202,5.6,5.6,44,0.00,,---,0.00,VWS V14.01,2013-03-05 16:23:00,
2013-03-05 11:29:00,41.9,22.1,29.47,NNE,22,2.7,4.9,45,0.00,,---,0.00,VWS V14.01,2013-03-05 16:29:00,
2013-03-05 11:34:00,41.7,22.0,29.47,NE,45,1.3,2.5,45,0.00,,---,0.00,VWS V14.01,2013-03-05 16:34:00,
2013-03-05 11:39:00,41.7,22.0,29.47,SW,225,3.1,3.1,45,0.00,,---,0.00,VWS V14.01,2013-03-05 16:39:00,
2013-03-05 11:44:00,41.5,21.8,29.47,SW,225,3.1,7.2,45,0.00,,---,0.00,VWS V14.01,2013-03-05 16:44:00,
2013-03-05 11:49:00,41.5,21.8,29.47,SSW,202,2.0,3.4,45,0.00,,---,0.00,VWS V14.01,2013-03-05 16:49:00,
2013-03-05 11:54:00,42.1,22.8,29.47,SSW,202,2.5,2.9,46,0.00,,---,0.00,VWS V14.01,2013-03-05 16:54:00,
2013-03-05 12:00:00,44.2,24.8,29.47,NNW,338,0.0,0.0,46,0.00,,---,0.00,VWS V14.01,2013-03-05 17:00:00,
2013-03-05 12:05:00,45.3,24.7,29.47,ENE,68,0.9,3.1,44,0.00,,---,0.00,VWS V14.01,2013-03-05 17:05:00,
2013-03-05 12:11:00,45.1,24.0,29.47,North,0,2.9,2.9,43,0.00,,---,0.00,VWS V14.01,2013-03-05 17:11:00,
2013-03-05 12:17:00,45.5,23.8,29.47,West,270,2.7,3.4,42,0.00,,---,0.00,VWS V14.01,2013-03-05 17:17:00,
2013-03-05 12:22:00,45.9,24.1,29.47,East,90,3.1,4.0,42,0.00,,---,0.00,VWS V14.01,2013-03-05 17:22:00,
2013-03-05 12:28:00,45.3,23.6,29.47,ESE,112,3.8,3.8,42,0.00,,---,0.00,VWS V14.01,2013-03-05 17:28:00,
2013-03-05 12:33:00,45.1,23.4,29.47,NW,315,2.0,2.7,42,0.00,,---,0.00,VWS V14.01,2013-03-05 17:33:00,
2013-03-05 12:39:00,45.1,23.4,29.47,ENE,68,3.1,6.7,42,0.00,,---,0.00,VWS V14.01,2013-03-05 17:39:00,
2013-03-05 12:44:00,45.0,23.3,29.47,East,90,2.2,7.4,42,0.00,,---,0.00,VWS V14.01,2013-03-05 17:44:00,
2013-03-05 12:50:00,45.3,23.6,29.47,ENE,68,4.7,7.2,42,0.00,,---,0.00,VWS V14.01,2013-03-05 17:50:00,
2013-03-05 12:55:00,46.2,23.8,29.47,ENE,68,2.5,4.7,41,0.00,,---,0.00,VWS V14.01,2013-03-05 17:55:00,
2013-03-05 13:00:00,47.3,24.8,29.47,NNE,22,2.7,2.7,41,0.00,,---,0.00,VWS V14.01,2013-03-05 18:00:00,
2013-03-05 13:05:00,47.1,24.6,29.47,SSE,158,2.7,2.9,41,0.00,,---,0.00,VWS V14.01,2013-03-05 18:05:00,
2013-03-05 13:10:00,47.7,25.1,29.47,SSE,158,4.9,4.9,41,0.00,,---,0.00,VWS V14.01,2013-03-05 18:10:00,
2013-03-05 13:15:00,47.7,24.5,29.47,SW,225,2.5,4.7,40,0.00,,---,0.00,VWS V14.01,2013-03-05 18:15:00,
2013-03-05 13:20:00,47.8,24.7,29.47,ENE,68,3.4,3.4,40,0.00,,---,0.00,VWS V14.01,2013-03-05 18:20:00,
2013-03-05 13:25:00,47.7,24.5,29.47,ENE,68,3.1,3.1,40,0.00,,---,0.00,VWS V14.01,2013-03-05 18:25:00,
2013-03-05 13:31:00,47.5,24.4,29.47,ENE,68,4.7,4.9,40,0.00,,---,0.00,VWS V14.01,2013-03-05 18:31:00,
2013-03-05 13:36:00,47.3,24.2,29.47,ESE,112,3.1,3.8,40,0.00,,---,0.00,VWS V14.01,2013-03-05 18:36:00,
2013-03-05 13:41:00,46.8,23.7,29.47,NNW,338,2.7,3.8,40,0.00,,---,0.00,VWS V14.01,2013-03-05 18:41:00,
2013-03-05 13:46:00,47.1,24.6,29.50,WNW,292,3.4,4.0,41,0.00,,---,0.00,VWS V14.01,2013-03-05 18:46:00,
2013-03-05 13:51:00,47.1,24.6,29.50,SSW,202,2.9,3.1,41,0.00,,---,0.00,VWS V14.01,2013-03-05 18:51:00,
2013-03-05 13:57:00,46.6,23.6,29.50,ESE,112,3.4,4.3,40,0.00,,---,0.00,VWS V14.01,2013-03-05 18:57:00,
2013-03-05 14:03:00,46.0,23.7,29.50,SW,225,2.2,5.8,41,0.00,,---,0.00,VWS V14.01,2013-03-05 19:03:00,
2013-03-05 14:08:00,45.7,23.4,29.50,SSE,158,2.9,5.8,41,0.00,,---,0.00,VWS V14.01,2013-03-05 19:08:00,
2013-03-05 14:14:00,46.4,24.0,29.50,SSE,158,3.8,4.7,41,0.00,,---,0.00,VWS V14.01,2013-03-05 19:14:00,
2013-03-05 14:20:00,45.9,23.5,29.50,SE,135,3.1,5.8,41,0.00,,---,0.00,VWS V14.01,2013-03-05 19:20:00,
2013-03-05 14:25:00,45.0,23.3,29.50,East,90,2.0,4.0,42,0.00,,---,0.00,VWS V14.01,2013-03-05 19:25:00,
2013-03-05 14:31:00,45.3,23.6,29.50,ESE,112,2.0,4.3,42,0.00,,---,0.00,VWS V14.01,2013-03-05 19:31:00,
2013-03-05 14:36:00,46.2,24.4,29.50,WSW,248,3.4,4.9,42,0.00,,---,0.00,VWS V14.01,2013-03-05 19:36:00,
2013-03-05 14:41:00,46.4,24.6,29.50,SW,225,3.1,6.7,42,0.00,,---,0.00,VWS V14.01,2013-03-05 19:41:00,
2013-03-05 14:46:00,45.3,23.0,29.50,WNW,292,2.9,4.0,41,0.00,,---,0.00,VWS V14.01,2013-03-05 19:46:00,
2013-03-05 14:52:00,43.7,22.1,29.50,WNW,292,3.6,4.9,42,0.00,,---,0.00,VWS V14.01,2013-03-05 19:52:00,
2013-03-05 14:57:00,43.3,22.4,29.50,NNE,22,2.2,3.8,43,0.00,,---,0.00,VWS V14.01,2013-03-05 19:57:00,
2013-03-05 15:02:00,43.5,22.5,29.50,West,270,2.9,7.2,43,0.00,,---,0.00,VWS V14.01,2013-03-05 20:02:00,
2013-03-05 15:07:00,43.5,23.1,29.50,NNW,338,4.0,4.3,44,0.00,,---,0.00,VWS V14.01,2013-03-05 20:07:00,
2013-03-05 15:12:00,43.7,23.2,29.50,East,90,1.6,3.4,44,0.00,,---,0.00,VWS V14.01,2013-03-05 20:12:00,
2013-03-05 15:17:00,43.9,23.4,29.50,SW,225,1.6,3.4,44,0.00,,---,0.00,VWS V14.01,2013-03-05 20:17:00,
2013-03-05 15:23:00,44.1,23.6,29.50,East,90,0.0,5.6,44,0.00,,---,0.00,VWS V14.01,2013-03-05 20:23:00,
2013-03-05 15:29:00,44.1,23.6,29.50,West,270,3.6,3.6,44,0.00,,---,0.00,VWS V14.01,2013-03-05 20:29:00,
2013-03-05 15:34:00,44.1,23.6,29.50,ENE,68,5.8,5.8,44,0.00,,---,0.00,VWS V14.01,2013-03-05 20:34:00,
2013-03-05 15:40:00,44.1,23.6,29.50,NNE,22,4.0,4.0,44,0.00,,---,0.00,VWS V14.01,2013-03-05 20:40:00,
2013-03-05 15:46:00,44.2,23.2,29.50,ESE,112,3.1,3.4,43,0.00,,---,0.00,VWS V14.01,2013-03-05 20:46:00,
2013-03-05 15:51:00,44.2,23.2,29.50,ENE,68,4.0,4.0,43,0.00,,---,0.00,VWS V14.01,2013-03-05 20:51:00,
2013-03-05 15:56:00,44.2,23.2,29.50,SSE,158,1.6,2.5,43,0.00,,---,0.00,VWS V14.01,2013-03-05 20:56:00,
2013-03-05 16:02:00,44.2,23.2,29.50,SW,225,2.0,3.4,43,0.00,,---,0.00,VWS V14.01,2013-03-05 21:02:00,
2013-03-05 16:08:00,44.2,23.2,29.50,West,270,3.6,3.6,43,0.00,,---,0.00,VWS V14.01,2013-03-05 21:08:00,
2013-03-05 16:13:00,44.2,23.2,29.53,NE,45,2.7,4.9,43,0.00,,---,0.00,VWS V14.01,2013-03-05 21:13:00,
2013-03-05 16:19:00,44.2,23.2,29.53,East,90,3.6,3.6,43,0.00,,---,0.00,VWS V14.01,2013-03-05 21:19:00,
2013-03-05 16:24:00,44.2,23.2,29.53,South,180,2.5,3.8,43,0.00,,---,0.00,VWS V14.01,2013-03-05 21:24:00,
2013-03-05 16:30:00,44.2,23.2,29.53,ENE,68,5.8,6.3,43,0.00,,---,0.00,VWS V14.01,2013-03-05 21:30:00,
2013-03-05 16:35:00,44.2,23.2,29.53,SW,225,2.2,2.5,43,0.00,,---,0.00,VWS V14.01,2013-03-05 21:35:00,
2013-03-05 16:40:00,44.2,23.2,29.53,NNW,338,2.7,3.1,43,0.00,,---,0.00,VWS V14.01,2013-03-05 21:40:00,
2013-03-05 16:45:00,44.2,23.2,29.53,NNE,22,3.6,8.5,43,0.00,,---,0.00,VWS V14.01,2013-03-05 21:45:00,
2013-03-05 16:50:00,44.2,23.2,29.53,NNW,338,4.9,4.9,43,0.00,,---,0.00,VWS V14.01,2013-03-05 21:50:00,
2013-03-05 16:56:00,44.2,23.2,29.53,North,0,3.1,5.6,43,0.00,,---,0.00,VWS V14.01,2013-03-05 21:56:00,
2013-03-05 17:02:00,44.2,23.2,29.53,NNW,338,1.3,1.3,43,0.00,,---,0.00,VWS V14.01,2013-03-05 22:02:00,
2013-03-05 17:08:00,41.0,22.8,29.53,SSE,158,2.0,2.5,48,0.00,,---,0.00,VWS V14.01,2013-03-05 22:08:00,
2013-03-05 17:13:00,40.5,22.3,29.53,NNW,338,3.8,3.8,48,0.00,,---,0.00,VWS V14.01,2013-03-05 22:13:00,
2013-03-05 17:19:00,40.1,22.5,29.53,NNW,338,1.3,2.9,49,0.00,,---,0.00,VWS V14.01,2013-03-05 22:19:00,
2013-03-05 17:25:00,39.4,22.3,29.53,West,270,2.2,2.7,50,0.00,,---,0.00,VWS V14.01,2013-03-05 22:25:00,
2013-03-05 17:30:00,39.2,22.6,29.56,East,90,0.0,2.7,51,0.00,,---,0.00,VWS V14.01,2013-03-05 22:30:00,
2013-03-05 17:36:00,39.2,22.6,29.56,ENE,68,0.9,3.4,51,0.00,,---,0.00,VWS V14.01,2013-03-05 22:36:00,
2013-03-05 17:41:00,39.2,22.6,29.56,South,180,2.2,2.2,51,0.00,,---,0.00,VWS V14.01,2013-03-05 22:41:00,
2013-03-05 17:46:00,38.7,22.6,29.56,SE,135,1.6,2.2,52,0.00,,---,0.00,VWS V14.01,2013-03-05 22:46:00,
2013-03-05 17:51:00,38.5,22.4,29.56,SW,225,1.6,2.2,52,0.00,,---,0.00,VWS V14.01,2013-03-05 22:51:00,
2013-03-05 17:56:00,38.5,22.9,29.56,WSW,248,1.6,1.6,53,0.00,,---,0.00,VWS V14.01,2013-03-05 22:56:00,
2013-03-05 18:01:00,38.3,22.7,29.56,West,270,0.0,2.2,53,0.00,,---,0.00,VWS V14.01,2013-03-05 23:01:00,
2013-03-05 18:06:00,38.3,22.7,29.56,WNW,292,0.0,0.0,53,0.00,,---,0.00,VWS V14.01,2013-03-05 23:06:00,
2013-03-05 18:11:00,37.9,22.4,29.56,SW,225,0.0,0.0,53,0.00,,---,0.00,VWS V14.01,2013-03-05 23:11:00,
2013-03-05 18:16:00,37.9,22.4,29.56,ESE,112,1.6,2.0,53,0.00,,---,0.00,VWS V14.01,2013-03-05 23:16:00,
2013-03-05 18:21:00,37.9,22.4,29.56,SSE,158,2.0,2.0,53,0.00,,---,0.00,VWS V14.01,2013-03-05 23:21:00,
2013-03-05 18:26:00,37.9,22.4,29.56,SSE,158,0.0,1.3,53,0.00,,---,0.00,VWS V14.01,2013-03-05 23:26:00,
2013-03-05 18:31:00,37.9,22.4,29.56,East,90,0.0,0.0,53,0.00,,---,0.00,VWS V14.01,2013-03-05 23:31:00,
2013-03-05 18:36:00,37.9,22.4,29.56,ENE,68,0.9,1.6,53,0.00,,---,0.00,VWS V14.01,2013-03-05 23:36:00,
2013-03-05 18:41:00,37.9,22.4,29.56,WSW,248,2.7,2.7,53,0.00,,---,0.00,VWS V14.01,2013-03-05 23:41:00,
2013-03-05 18:47:00,37.9,22.4,29.56,East,90,2.5,2.5,53,0.00,,---,0.00,VWS V14.01,2013-03-05 23:47:00,
2013-03-05 18:52:00,37.9,22.4,29.56,ENE,68,2.9,2.9,53,0.00,,---,0.00,VWS V14.01,2013-03-05 23:52:00,
2013-03-05 18:57:00,37.9,22.4,29.59,ENE,68,2.5,2.9,53,0.00,,---,0.00,VWS V14.01,2013-03-05 23:57:00,
2013-03-05 19:02:00,37.9,22.4,29.59,North,0,0.0,2.5,53,0.00,,---,0.00,VWS V14.01,2013-03-06 00:02:00,
2013-03-05 19:07:00,37.9,22.4,29.59,ENE,68,2.5,3.4,53,0.00,,---,0.00,VWS V14.01,2013-03-06 00:07:00,
2013-03-05 19:13:00,37.9,22.4,29.59,ENE,68,1.6,3.1,53,0.00,,---,0.00,VWS V14.01,2013-03-06 00:13:00,
2013-03-05 19:17:00,37.9,22.4,29.59,ENE,68,0.0,1.1,53,0.00,,---,0.00,VWS V14.01,2013-03-06 00:17:00,
2013-03-05 19:22:00,37.9,22.4,29.59,East,90,0.0,1.3,53,0.00,,---,0.00,VWS V14.01,2013-03-06 00:22:00,
2013-03-05 19:27:00,37.9,22.4,29.59,East,90,0.0,0.0,53,0.00,,---,0.00,VWS V14.01,2013-03-06 00:27:00,
2013-03-05 19:32:00,37.9,22.4,29.59,East,90,0.0,1.1,53,0.00,,---,0.00,VWS V14.01,2013-03-06 00:32:00,
2013-03-05 19:37:00,37.9,22.4,29.59,East,90,0.0,0.0,53,0.00,,---,0.00,VWS V14.01,2013-03-06 00:37:00,
2013-03-05 19:43:00,37.9,22.4,29.59,East,90,0.0,0.0,53,0.00,,---,0.00,VWS V14.01,2013-03-06 00:43:00,
2013-03-05 19:48:00,37.9,22.4,29.59,WSW,248,1.1,1.3,53,0.00,,---,0.00,VWS V14.01,2013-03-06 00:48:00,
2013-03-05 19:52:00,37.9,22.4,29.59,SSW,202,0.0,1.1,53,0.00,,---,0.00,VWS V14.01,2013-03-06 00:52:00,
2013-03-05 19:57:00,37.9,22.4,29.59,SSW,202,0.0,0.0,53,0.00,,---,0.00,VWS V14.01,2013-03-06 00:57:00,
2013-03-05 20:02:00,37.9,22.4,29.59,SSE,158,0.0,0.0,53,0.00,,---,0.00,VWS V14.01,2013-03-06 01:02:00,
2013-03-05 20:07:00,37.9,22.4,29.59,SSW,202,1.3,1.3,53,0.00,,---,0.00,VWS V14.01,2013-03-06 01:07:00,
2013-03-05 20:12:00,37.9,22.4,29.59,SSW,202,1.1,1.3,53,0.00,,---,0.00,VWS V14.01,2013-03-06 01:12:00,
2013-03-05 20:18:00,37.9,22.4,29.59,SSW,202,1.1,1.1,53,0.00,,---,0.00,VWS V14.01,2013-03-06 01:18:00,
2013-03-05 20:23:00,37.9,22.4,29.59,ESE,112,0.0,1.1,53,0.00,,---,0.00,VWS V14.01,2013-03-06 01:23:00,
2013-03-05 20:28:00,37.9,22.4,29.59,WSW,248,1.6,1.6,53,0.00,,---,0.00,VWS V14.01,2013-03-06 01:28:00,
2013-03-05 20:34:00,37.9,22.4,29.59,NNE,22,1.3,1.3,53,0.00,,---,0.00,VWS V14.01,2013-03-06 01:34:00,
2013-03-05 20:40:00,37.9,22.4,29.59,West,270,0.0,0.0,53,0.00,,---,0.00,VWS V14.01,2013-03-06 01:40:00,
2013-03-05 20:45:00,37.9,22.4,29.59,West,270,0.0,0.0,53,0.00,,---,0.00,VWS V14.01,2013-03-06 01:45:00,
2013-03-05 20:50:00,37.9,22.4,29.59,WSW,248,0.0,0.0,53,0.00,,---,0.00,VWS V14.01,2013-03-06 01:50:00,
2013-03-05 20:56:00,37.9,22.4,29.59,WSW,248,0.0,0.0,53,0.00,,---,0.00,VWS V14.01,2013-03-06 01:56:00,
2013-03-05 21:00:00,36.3,26.1,29.59,WSW,248,0.0,0.0,66,0.00,,---,0.00,VWS V14.01,2013-03-06 02:00:00,
2013-03-05 21:05:00,36.3,26.1,29.59,WSW,248,0.0,2.0,66,0.00,,---,0.00,VWS V14.01,2013-03-06 02:05:00,
2013-03-05 21:10:00,36.1,25.9,29.59,WSW,248,0.0,0.0,66,0.00,,---,0.00,VWS V14.01,2013-03-06 02:10:00,
2013-03-05 21:15:00,36.0,25.7,29.59,WSW,248,0.0,0.0,66,0.00,,---,0.00,VWS V14.01,2013-03-06 02:15:00,
2013-03-05 21:20:00,36.0,26.1,29.59,South,180,0.0,0.0,67,0.00,,---,0.00,VWS V14.01,2013-03-06 02:20:00,
2013-03-05 21:25:00,36.1,26.3,29.59,East,90,1.6,2.0,67,0.00,,---,0.00,VWS V14.01,2013-03-06 02:25:00,
2013-03-05 21:30:00,36.3,26.8,29.62,East,90,0.0,0.9,68,0.00,,---,0.00,VWS V14.01,2013-03-06 02:30:00,
2013-03-05 21:35:00,36.3,26.8,29.62,East,90,0.0,0.0,68,0.00,,---,0.00,VWS V14.01,2013-03-06 02:35:00,
2013-03-05 21:40:00,36.5,27.0,29.62,North,0,0.9,2.5,68,0.00,,---,0.00,VWS V14.01,2013-03-06 02:40:00,
2013-03-05 21:45:00,36.5,27.0,29.62,NNE,22,0.0,1.6,68,0.00,,---,0.00,VWS V14.01,2013-03-06 02:45:00,
2013-03-05 21:51:00,36.5,27.0,29.62,NNE,22,0.0,0.0,68,0.00,,---,0.00,VWS V14.01,2013-03-06 02:51:00,
2013-03-05 21:56:00,36.1,26.6,29.62,NNE,22,0.0,0.0,68,0.00,,---,0.00,VWS V14.01,2013-03-06 02:56:00,
2013-03-05 22:01:00,36.0,26.4,29.62,NNE,22,0.0,0.0,68,0.00,,---,0.00,VWS V14.01,2013-03-06 03:01:00,
2013-03-05 22:06:00,36.0,26.4,29.62,NNE,22,0.0,0.0,68,0.00,,---,0.00,VWS V14.01,2013-03-06 03:06:00,
2013-03-05 22:11:00,36.1,26.6,29.62,NNE,22,0.0,0.0,68,0.00,,---,0.00,VWS V14.01,2013-03-06 03:11:00,
2013-03-05 22:16:00,36.3,27.1,29.62,NNE,22,2.2,2.5,69,0.00,,---,0.00,VWS V14.01,2013-03-06 03:16:00,
2013-03-05 22:22:00,36.7,27.5,29.62,NNE,22,0.0,0.0,69,0.00,,---,0.00,VWS V14.01,2013-03-06 03:22:00,
2013-03-05 22:27:00,36.7,27.5,29.62,NNE,22,2.7,3.1,69,0.00,,---,0.00,VWS V14.01,2013-03-06 03:27:00,
2013-03-05 22:32:00,36.7,28.2,29.62,ENE,68,3.8,4.3,71,0.00,,---,0.00,VWS V14.01,2013-03-06 03:32:00,
2013-03-05 22:37:00,36.7,28.9,29.62,NE,45,3.1,4.7,73,0.00,,---,0.00,VWS V14.01,2013-03-06 03:37:00,
2013-03-05 22:42:00,36.5,29.0,29.62,NE,45,2.9,2.9,74,0.00,,---,0.00,VWS V14.01,2013-03-06 03:42:00,
2013-03-05 22:48:00,36.3,29.2,29.62,NE,45,2.9,3.4,75,0.00,,---,0.00,VWS V14.01,2013-03-06 03:48:00,
2013-03-05 22:53:00,36.1,29.6,29.62,NNE,22,2.0,4.3,77,0.00,,---,0.00,VWS V14.01,2013-03-06 03:53:00,
2013-03-05 22:58:00,36.0,29.1,29.65,ENE,68,2.5,2.5,76,0.00,,---,0.00,VWS V14.01,2013-03-06 03:58:00,
2013-03-05 23:03:00,35.6,29.1,29.65,NE,45,2.0,2.7,77,0.00,,---,0.00,VWS V14.01,2013-03-06 04:03:00,
2013-03-05 23:08:00,35.4,28.9,29.65,NE,45,0.0,0.0,77,0.00,,---,0.00,VWS V14.01,2013-03-06 04:08:00,
2013-03-05 23:15:00,35.2,28.8,29.65,NE,45,0.0,0.0,77,0.00,,---,0.00,VWS V14.01,2013-03-06 04:15:00,
2013-03-05 23:21:00,35.1,28.6,29.65,NE,45,0.0,0.0,77,0.00,,---,0.00,VWS V14.01,2013-03-06 04:21:00,
2013-03-05 23:26:00,35.1,28.9,29.65,NE,45,0.0,0.0,78,0.00,,---,0.00,VWS V14.01,2013-03-06 04:26:00,
2013-03-05 23:31:00,35.1,28.9,29.65,NE,45,2.0,2.0,78,0.00,,---,0.00,VWS V14.01,2013-03-06 04:31:00,
2013-03-05 23:37:00,35.1,28.9,29.65,North,0,0.0,0.0,78,0.00,,---,0.00,VWS V14.01,2013-03-06 04:37:00,
2013-03-05 23:43:00,34.9,29.0,29.65,NE,45,0.0,0.0,79,0.00,,---,0.00,VWS V14.01,2013-03-06 04:43:00,
2013-03-05 23:48:00,34.9,29.0,29.65,NE,45,0.0,0.0,79,0.00,,---,0.00,VWS V14.01,2013-03-06 04:48:00,
2013-03-05 23:53:00,34.7,28.9,29.65,NE,45,0.0,0.0,79,0.00,,---,0.00,VWS V14.01,2013-03-06 04:53:00,
2013-03-05 23:58:00,34.9,29.0,29.65,NE,45,0.9,2.2,79,0.00,,---,0.00,VWS V14.01,2013-03-06 04:58:00,